Flag for Chile Weather past 2 weeks in Santiago, Chile

Now
64 °F

Passing clouds.


Feels Like: 64 °F
Forecast: 53 / 87 °F
Wind: 5 mph from Southwest

Location: Pudahuel

Current Time: Dec 23, 2014 at 1:56:09 AM

Latest Report: Dec 23, 2014 at 1:00 AM


Visibility: N/A

Pressure: 29.98 "Hg

Humidity: 28%

Dew point: 30 °F

Location of SantiagoLocation

Historic Weather in Santiago — Graph

°F

Santiago temperature yesterday

Maximum temperature yesterday: 81 °F (at 5:00 PM)
Minimum temperature yesterday: 46 °F (at 5:00 AM)
Average temperature yesterday: 64 °F

Past Weeks' High & Low Weather Summary

 TemperatureHumidityPressure
High86 °F (Dec 8, 2:00 PM)88% (Dec 9, 5:00 AM)30.15 "Hg (Dec 9, 5:00 AM)
Low46 °F (Dec 22, 5:00 AM)8% (Dec 22, 3:00 PM)29.77 "Hg (Dec 8, 6:00 PM)
Average65 °F52%29.99 "Hg
* Reported Midnight between Dec 7 and Dec 8 — Midnight between Dec 22 and Dec 23, Santiago, Weather by CustomWeather, © 2014

Note: Actual official high and low records may vary slightly from our data, if they occured in-between our weather recording intervals... More about our weather records

Advertising

Santiago weather history for previous 24 hours

 ConditionsComfort  
Time TempWeatherWind HumidityBarometerVisibility
12:00 AM
Dec 23
66 °FClear.15 mph28%29.98 "Hg10 mi
11:00 PM
Dec 22
68 °FClear.14 mph26%29.98 "Hg10 mi
10:00 PM72 °FClear.12 mph23%29.98 "Hg10 mi
9:00 PM73 °FClear.10 mph19%29.98 "Hg10 mi
8:00 PM77 °FSunny.15 mph17%29.98 "Hg10 mi
7:00 PM81 °FPassing clouds.12 mph13%29.98 "HgN/A
6:00 PM81 °FPassing clouds.13 mph14%29.98 "HgN/A
5:00 PM81 °FPassing clouds.12 mph13%30.01 "HgN/A
4:00 PM79 °FPassing clouds.15 mph13%30.04 "HgN/A
3:00 PM77 °FPassing clouds.12 mph8%30.04 "HgN/A
2:00 PM75 °FPassing clouds.8 mph14%30.07 "HgN/A
1:00 PM72 °FPassing clouds.7 mph22%30.07 "HgN/A
12:00 PM68 °FSunny.6 mph28%30.09 "Hg10 mi
11:00 AM64 °FSunny.2 mph37%30.09 "Hg10 mi
10:00 AM61 °FSunny.2 mph42%30.12 "Hg10 mi
9:00 AM57 °FSunny.3 mph44%30.12 "Hg10 mi
8:00 AM48 °FPassing clouds.5 mph66%30.12 "Hg5 mi
7:00 AM46 °FScattered clouds.5 mph71%30.12 "Hg4 mi
6:00 AM46 °FClear.2 mph71%30.12 "Hg10 mi
5:00 AM46 °FClear.6 mph71%30.12 "Hg10 mi
4:00 AM50 °FPassing clouds.3 mph62%30.12 "HgN/A
3:00 AM52 °FClear.1 mph62%30.12 "Hg10 mi
2:00 AM54 °FClear.3 mph58%30.15 "Hg10 mi
1:00 AM57 °FClear.2 mph51%30.15 "Hg10 mi
Weather by CustomWeather, © 2014

See weather overviewHow to use our weather pages